Date String (YYYY-MM-DD hh:mm:ss) UTC,Instrument flags,absolute air pressure of the measurement (hPa),sample flow rate (lpm),inlet stack bypass flow (lpm),air temperature of the measurement (°C),ambient temperature measured by the external sensor (°C),aerosol sample conditioner tube jacket temperature (°C),OPC LED temperature (°C),internal box temperature (°C),relative humidity of the measurement (%),span deviation,mass concentration of particles derived from Lorenz-Mie calculation of OPC scattering (μg/m³),mass concentration of particles derived from Lorenz-Mie calculation of OPC scattering (μg/m³),mass concentration of particles derived from Lorenz-Mie calculation of OPC scattering (μg/m³)
DateTimeUTC,F1_M11,P_M11,Q1_M11,Q2_M11,T1_M11,T2_M11,T3_M11,T4_M11,T5_M11,U1_M11,ZSPAN_M11,X2_M11,X0_M11,X1_M11
2023-09-23 22:00:00,SystemResetWarning,0827.8,4.99,000.00,028.2,027.2,000.0,036.5,030.0,9.0,0000.0,0002.70,0009.81,0002.18
2023-09-23 22:01:00,SystemResetWarning,0827.8,5.00,000.00,028.3,027.3,000.0,036.5,030.0,9.0,0000.0,0002.73,0010.09,0002.18
2023-09-23 22:02:00,SystemResetWarning,0827.8,4.98,000.00,028.3,026.2,000.0,036.4,029.8,9.0,0000.0,0002.75,0009.60,0002.16
2023-09-23 22:03:00,SystemResetWarning,0827.8,5.01,000.00,028.1,024.5,000.0,036.4,029.4,9.1,0000.0,0002.76,0009.05,0002.17
2023-09-23 22:04:00,SystemResetWarning,0827.7,5.01,000.00,028.0,024.3,000.0,036.3,029.4,8.9,0000.0,0002.80,0009.72,0002.16
2023-09-23 22:05:00,SystemResetWarning,0827.7,5.01,000.00,028.0,024.6,000.0,036.3,029.3,8.9,0000.0,0002.81,0009.93,0002.16
2023-09-23 22:06:00,SystemResetWarning,0827.7,5.00,000.00,027.9,025.0,000.0,036.3,029.3,9.0,0000.0,0002.75,0009.84,0002.14
2023-09-23 22:07:00,SystemResetWarning,0827.8,5.00,000.00,027.9,025.4,000.0,036.3,029.4,9.0,0000.0,0002.70,0009.36,0002.13
2023-09-23 22:08:00,SystemResetWarning,0827.7,5.00,000.00,027.9,025.8,000.0,036.3,029.5,9.0,0000.0,0002.68,0008.64,0002.12
2023-09-23 22:09:00,SystemResetWarning,0827.8,4.99,000.00,028.0,026.2,000.0,036.4,029.6,9.0,0000.0,0002.67,0008.05,0002.12
2023-09-23 22:10:00,SystemResetWarning,0827.8,5.00,000.00,028.0,026.5,000.0,036.4,029.7,8.5,0000.0,0002.65,0008.11,0002.13
2023-09-23 22:11:00,SystemResetWarning,0827.7,5.00,000.00,028.1,026.8,000.0,036.4,029.8,8.5,0000.0,0002.61,0007.73,0002.13
2023-09-23 22:12:00,SystemResetWarning,0827.8,5.01,000.00,028.2,027.0,000.0,036.4,029.9,8.7,0000.0,0002.57,0007.56,0002.12
2023-09-23 22:13:00,SystemResetWarning,0827.8,5.00,000.00,028.2,027.2,000.0,036.4,030.0,8.8,0000.0,0002.54,0006.91,0002.12
2023-09-23 22:14:00,SystemResetWarning,0827.8,4.99,000.00,028.3,027.2,000.0,036.5,030.0,8.4,0000.0,0002.56,0007.29,0002.10
2023-09-23 22:15:00,SystemResetWarning,0827.7,4.99,000.00,028.2,025.9,000.0,036.4,029.7,8.7,0000.0,0002.56,0006.69,0002.10
2023-09-23 22:16:00,SystemResetWarning,0827.7,5.01,000.00,028.1,024.5,000.0,036.3,029.4,8.6,0000.0,0002.55,0006.11,0002.07
2023-09-23 22:17:00,SystemResetWarning,0827.7,5.01,000.00,028.0,024.5,000.0,036.3,029.4,8.8,0000.0,0002.54,0006.18,0002.06
2023-09-23 22:18:00,SystemResetWarning,0827.7,4.99,000.00,027.9,024.8,000.0,036.3,029.3,8.5,0000.0,0002.55,0006.96,0002.07
2023-09-23 22:19:00,SystemResetWarning,0827.7,5.00,000.00,027.9,025.2,000.0,036.3,029.4,8.4,0000.0,0002.56,0007.29,0002.07
2023-09-23 22:20:00,SystemResetWarning,0827.7,5.00,000.00,027.9,025.6,000.0,036.3,029.5,8.2,0000.0,0002.57,0007.63,0002.07
2023-09-23 22:21:00,SystemResetWarning,0827.7,5.00,000.00,028.0,026.0,000.0,036.3,029.6,8.0,0000.0,0002.56,0007.45,0002.05
2023-09-23 22:22:00,SystemResetWarning,0827.7,4.99,000.00,028.0,026.3,000.0,036.3,029.7,8.0,0000.0,0002.59,0007.34,0002.04
2023-09-23 22:23:00,SystemResetWarning,0827.7,4.99,000.00,028.1,026.6,000.0,036.4,029.8,8.1,0000.0,0002.60,0007.96,0002.03
2023-09-23 22:24:00,SystemResetWarning,0827.7,5.00,000.00,028.1,026.9,000.0,036.4,029.9,8.1,0000.0,0002.59,0007.99,0002.04
2023-09-23 22:25:00,SystemResetWarning,0827.7,5.00,000.00,028.2,027.1,000.0,036.4,030.0,8.2,0000.0,0002.56,0007.91,0002.05
2023-09-23 22:26:00,SystemResetWarning,0827.7,5.00,000.00,028.2,027.2,000.0,036.4,030.0,8.1,0000.0,0002.55,0008.02,0002.05
2023-09-23 22:27:00,SystemResetWarning,0827.7,5.00,000.00,028.3,027.0,000.0,036.4,030.0,7.9,0000.0,0002.56,0008.00,0002.07
2023-09-23 22:28:00,SystemResetWarning,0827.7,5.00,000.00,028.2,025.5,000.0,036.4,029.4,7.8,0000.0,0002.59,0008.23,0002.08
2023-09-23 22:29:00,SystemResetWarning,0827.6,5.01,000.00,028.0,024.4,000.0,036.4,029.2,7.9,0000.0,0002.57,0008.13,0002.07
2023-09-23 22:30:00,SystemResetWarning,0827.6,5.01,000.00,028.0,024.5,000.0,036.3,029.3,8.2,0000.0,0002.59,0008.08,0002.07
2023-09-23 22:31:00,SystemResetWarning,0827.7,5.00,000.00,027.9,024.8,000.0,036.3,029.3,8.1,0000.0,0002.58,0007.78,0002.08
2023-09-23 22:32:00,SystemResetWarning,0827.7,5.00,000.00,027.9,025.2,000.0,036.3,029.4,8.0,0000.0,0002.59,0007.58,0002.09
2023-09-23 22:33:00,SystemResetWarning,0827.7,5.00,000.00,027.9,025.6,000.0,036.3,029.5,8.1,0000.0,0002.55,0007.56,0002.09
2023-09-23 22:34:00,SystemResetWarning,0827.7,5.00,000.00,028.0,026.0,000.0,036.3,029.6,8.3,0000.0,0002.54,0006.88,0002.09
2023-09-23 22:35:00,SystemResetWarning,0827.7,4.99,000.00,028.0,026.3,000.0,036.3,029.7,8.3,0000.0,0002.55,0007.39,0002.08
2023-09-23 22:36:00,SystemResetWarning,0827.8,5.01,000.00,028.1,026.6,000.0,036.3,029.8,8.0,0000.0,0002.57,0007.07,0002.08
2023-09-23 22:37:00,SystemResetWarning,0827.8,5.02,000.00,028.1,026.8,000.0,036.4,029.8,8.0,0000.0,0002.57,0006.21,0002.09
2023-09-23 22:38:00,SystemResetWarning,0827.7,5.00,000.00,028.2,027.1,000.0,036.4,029.9,7.8,0000.0,0002.60,0006.17,0002.11
2023-09-23 22:39:00,SystemResetWarning,0827.7,4.99,000.00,028.2,027.2,000.0,036.4,030.0,7.9,0000.0,0002.57,0006.25,0002.12
2023-09-23 22:40:00,SystemResetWarning,0827.8,4.99,000.00,028.3,027.3,000.0,036.4,030.0,7.7,0000.0,0002.59,0005.80,0002.14
2023-09-23 22:41:00,SystemResetWarning,0827.8,4.99,000.00,028.3,026.1,000.0,036.4,029.7,7.9,0000.0,0002.55,0006.47,0002.13
2023-09-23 22:42:00,SystemResetWarning,0827.7,5.00,000.00,028.1,024.5,000.0,036.3,029.3,7.8,0000.0,0002.54,0006.48,0002.12
2023-09-23 22:43:00,SystemResetWarning,0827.7,5.02,000.00,028.0,024.3,000.0,036.3,029.3,8.0,0000.0,0002.54,0006.48,0002.12
2023-09-23 22:44:00,SystemResetWarning,0827.7,5.00,000.00,027.9,024.6,000.0,036.3,029.3,7.8,0000.0,0002.55,0006.38,0002.13
2023-09-23 22:45:00,SystemResetWarning,0827.7,5.00,000.00,027.9,025.0,000.0,036.3,029.4,7.7,0000.0,0002.55,0006.24,0002.15
2023-09-23 22:46:00,SystemResetWarning,0827.7,5.01,000.00,027.9,025.4,000.0,036.3,029.4,7.7,0000.0,0002.54,0005.47,0002.17
2023-09-23 22:47:00,SystemResetWarning,0827.7,5.00,000.00,027.9,025.7,000.0,036.3,029.5,7.8,0000.0,0002.53,0005.20,0002.20
2023-09-23 22:48:00,SystemResetWarning,0827.7,5.00,000.00,028.0,026.1,000.0,036.3,029.6,7.8,0000.0,0002.53,0005.21,0002.20
2023-09-23 22:49:00,SystemResetWarning,0827.8,5.00,000.00,028.0,026.4,000.0,036.3,029.7,7.7,0000.0,0002.50,0005.32,0002.19
2023-09-23 22:50:00,SystemResetWarning,0827.8,5.00,000.00,028.1,026.6,000.0,036.3,029.7,7.7,0000.0,0002.50,0004.84,0002.20
2023-09-23 22:51:00,SystemResetWarning,0827.7,5.00,000.00,028.1,026.8,000.0,036.4,029.8,7.8,0000.0,0002.54,0004.83,0002.22
2023-09-23 22:52:00,SystemResetWarning,0827.7,5.00,000.00,028.2,027.0,000.0,036.4,029.9,7.9,0000.0,0002.61,0004.03,0002.24
2023-09-23 22:53:00,SystemResetWarning,0827.7,5.00,000.00,028.2,027.2,000.0,036.4,030.0,7.9,0000.0,0002.64,0004.04,0002.28
2023-09-23 22:54:00,SystemResetWarning,0827.7,5.00,000.00,028.3,027.3,000.0,036.4,030.0,8.2,0000.0,0002.67,0003.99,0002.31
2023-09-23 22:55:00,SystemResetWarning,0827.7,5.00,000.00,028.3,027.3,000.0,036.4,030.1,8.0,0000.0,0002.71,0004.13,0002.34
2023-09-23 22:56:00,SystemResetWarning,0827.7,4.98,000.00,028.3,025.9,000.0,036.4,029.7,7.8,0000.0,0002.73,0004.41,0002.34
2023-09-23 22:57:00,SystemResetWarning,0827.7,5.02,000.00,028.1,024.5,000.0,036.4,029.4,7.8,0000.0,0002.76,0005.52,0002.35
2023-09-23 22:58:00,SystemResetWarning,0827.7,5.01,000.00,028.1,024.4,000.0,036.3,029.3,7.9,0000.0,0002.77,0005.70,0002.35
2023-09-23 22:59:00,SystemResetWarning,0827.7,4.99,000.00,028.0,024.7,000.0,036.3,029.3,8.1,0000.0,0002.75,0005.63,0002.34
